This demonstration page uses our WeatherBlox Daily Observations layout. Learn more.

Left ArrowRight Arrow

39.92423, -83.80882

Hourly Observations for March 13, 2017

Temp ( °F °C ) Dew Point ( °F °C ) Humidity (%) Winds ( mph kmh ) Pressure ( in mb ) Visibility ( mi km ) Precip ( " mm )
12:56 am 00:56 Clear 26 -3.3 15 -9.4 63 63 E 9 15 30.35 1028 10 16.0934 0 0
1:56 am 01:56 Clear 26 -3.3 17 -8.3 69 69 E 14 22 30.32 1027 10 16.0934 0 0
2:56 am 02:56 Clear 26 -3.3 17 -8.3 69 69 E 12 19 30.32 1027 10 16.0934 0 0
3:56 am 03:56 Mostly Clear 25 -3.9 15 -9.4 66 66 E 12 19 30.29 1026 10 16.0934 0 0
4:56 am 04:56 Mostly Clear 25 -3.9 14 -10 63 63 E 12 19 30.29 1026 10 16.0934 0 0
5:56 am 05:56 Clear 25 -3.9 15 -9.4 66 66 E 12 19 30.29 1026 10 16.0934 0 0
6:56 am 06:56 Clear 24 -4.4 16 -8.9 71 71 E 12 19 30.27 1025 10 16.0934 0 0
7:56 am 07:56 Sunny 24 -4.4 16 -8.9 71 71 E 14 22 30.24 1024 10 16.0934 0 0
8:56 am 08:56 Sunny 25 -3.9 16 -8.9 69 69 E 15 24 30.23 1024 10 16.0934 0 0
9:56 am 09:56 Sunny 27 -2.8 17 -8.3 66 66 E 16 26 30.21 1023 10 16.0934 0 0
10:56 am 10:56 Sunny 29 -1.7 18 -7.8 63 63 E 13 20 30.18 1022 10 16.0934 0 0
11:56 am 11:56 Sunny 32 0 18 -7.8 56 56 ESE 13 20 30.16 1021 10 16.0934 0 0
12:56 pm 12:56 Partly Cloudy 33 0.6 18 -7.8 54 54 E 9 15 30.15 1021 10 16.0934 0 0
1:56 pm 13:56 Mostly Sunny 36 2.2 19 -7.2 50 50 E 8 13 30.11 1020 10 16.0934 0 0
2:56 pm 14:56 Mostly Cloudy 35 1.7 18 -7.8 50 50 NE 3 6 30.1 1019 10 16.0934 0 0
3:56 pm 15:56 Cloudy 36 2.2 19 -7.2 50 50 VRB 5 7 30.08 1019 10 16.0934 0 0
4:56 pm 16:56 Cloudy with Light Snow 32 0 25 -3.9 75 75 NNE 9 15 30.11 1020 1.5 2.41401 0 0.0254
5:02 pm 17:02 Cloudy with Light Snow 30 -1 27 -3 86 86 N 8 13 30.12 1020 1 1.60934 0 0.0254
5:08 pm 17:08 Cloudy with Light Snow 30 -1 27 -3 86 86 N 6 9 30.12 1020 0.5 0.80467 0 0.0254
5:37 pm 17:37 Cloudy with Light Snow 30 -1 28 -2 93 93 NNE 9 15 30.12 1020 0.75 1.207005 0 0.0254
5:56 pm 17:56 Cloudy with Light Snow 30 -1.1 28 -2.2 92 92 NE 8 13 30.1 1019 0.75 1.207005 0 0.0254
6:14 pm 18:14 Cloudy with Snow 30 -1 27 -3 86 86 NE 9 15 30.12 1020 0.5 0.80467 0 0.0254
6:24 pm 18:24 Cloudy with Light Snow 30 -1 27 -3 86 86 NE 10 17 30.12 1020 0.75 1.207005 0 0.0254
6:38 pm 18:38 Cloudy with Light Snow 30 -1 27 -3 86 86 NE 10 17 30.09 1019 1 1.60934 0 0.0254
6:51 pm 18:51 Cloudy with Light Snow 28 -2 27 -3 93 93 NNE 13 20 30.09 1019 1.5 2.41401 0 0.0254
6:56 pm 18:56 Cloudy with Light Snow 29 -1.7 27 -2.8 92 92 NNE 14 22 30.08 1019 2 3.21868 0 0.0254
7:00 pm 19:00 Cloudy with Light Snow 28 -2 27 -3 93 93 NNE 13 20 30.09 1019 3 4.82802 0 0.0254
7:10 pm 19:10 Cloudy with Light Snow 28 -2 27 -3 93 93 NNE 15 24 30.09 1019 5 8.0467 0 0.0254
7:56 pm 19:56 Cloudy with Light Snow 28 -2.2 25 -3.9 88 88 NE 8 13 30.06 1018 6 9.65604 0 0.0254
8:08 pm 20:08 Cloudy with Light Snow 28 -2 25 -4 86 86 NE 8 13 30.09 1019 6 9.65604 0 0.0254
8:56 pm 20:56 Cloudy with Light Snow 28 -2.2 25 -3.9 88 88 NNE 9 15 30.06 1018 5 8.0467 0 0.0254
9:56 pm 21:56 Cloudy with Light Snow 27 -2.8 25 -3.9 92 92 NNE 10 17 30.07 1018 6 9.65604 0 0.0254
10:32 pm 22:32 Cloudy with Light Snow 27 -3 25 -4 93 93 N 13 20 30.09 1019 6 9.65604 0 0.0254
10:56 pm 22:56 Cloudy with Light Snow 26 -3.3 24 -4.4 92 92 NNE 9 15 30.07 1018 8 12.87472 0 0.0254
11:56 pm 23:56 Cloudy with Light Snow 26 -3.3 22 -5.6 84 84 NNE 9 15 30.07 1018 9 14.48406 0 0.0254

Powered by AerisWeather